Probability
0 2 5 7 9 10 10 9 6 4 4 4 3 3 3 2 1 0 0 0 0 0 0 0 0 0 0 0 0 0 0 1 2 1 0 0 0 0 0 0 0 0 0
0 2 5 7 8 10 10 8 6 5 5 4 3 3 2 1 0 0 0 0 0 0 0 0 0 0 0 0 0 0 1 1 2 1 0 0 0 0 0 0 0 0 0
0 1 4 5 6 8 8 7 6 5 5 4 3 3 1 0 0 0 0 0 0 0 0 0 0 0 0 1 1 1 2 3 2 1 0 0 0 0 0 0 0 0 0
0 0 2 3 4 6 7 7 6 5 4 4 4 3 1 0 0 1 0 0 0 0 0 0 0 1 1 2 3 3 3 3 2 1 0 0 0 0 0 0 0 0 0
0 0 0 1 3 5 6 8 7 5 4 4 4 3 2 1 0 1 1 0 0 0 0 0 0 0 1 2 3 3 2 2 1 0 0 0 0 0 0 0 0 0 0
0 0 0 1 3 5 6 8 8 6 6 6 5 4 3 2 1 1 1 0 0 0 0 0 0 0 0 1 1 1 1 1 0 0 0 0 0 0 0 0 0 0 0
0 0 0 0 2 4 6 7 8 7 6 6 5 4 3 3 2 1 0 0 0 0 0 0 1 1 1 1 2 2 1 0 1 1 1 0 0 0 0 0 0 0 0
0 0 0 0 1 4 6 7 8 7 5 4 4 4 4 4 3 1 0 0 0 0 0 0 1 2 3 4 4 3 2 1 2 2 1 0 0 1 1 1 1 0 0
0 0 0 0 1 3 5 5 6 6 4 2 3 4 5 5 4 3 1 0 0 0 0 0 1 2 3 3 3 2 1 1 1 2 1 0 0 0 1 2 2 2 2
0 0 0 0 0 1 2 2 2 3 3 2 2 3 5 5 4 3 2 1 1 1 0 0 1 1 1 1 2 1 0 0 0 0 0 0 0 0 1 2 3 4 4
0 0 0 0 0 0 0 0 0 1 1 1 1 2 2 2 1 1 3 3 3 2 1 0 1 1 1 1 1 0 0 0 0 0 0 0 0 1 1 2 2 4 4
0 0 0 0 0 0 0 0 0 0 0 0 0 0 0 0 0 1 3 4 4 3 1 1 2 4 4 2 1 0 0 0 0 0 1 1 1 2 2 1 1 2 2
0 0 0 0 0 0 0 0 0 0 0 0 0 0 0 0 0 1 2 4 4 4 2 2 3 4 4 3 2 1 0 0 0 1 2 4 4 4 3 2 1 1 0
0 0 0 0 0 0 0 0 0 0 0 0 0 1 1 1 1 1 1 2 4 4 4 3 3 3 3 2 2 2 1 0 0 1 2 5 6 6 5 3 2 1 1
1 0 0 0 0 0 0 0 0 0 0 0 1 2 3 3 2 2 1 1 2 3 5 6 5 3 1 1 1 2 1 0 0 0 2 5 7 7 6 4 3 3 3
2 1 1 0 1 1 1 1 1 1 1 2 2 3 4 4 3 3 1 0 1 2 4 6 6 3 1 0 0 1 1 0 0 0 1 4 7 8 7 5 4 4 3
4 4 3 2 3 3 2 2 2 2 3 3 3 4 4 4 3 3 2 1 1 1 3 4 5 3 2 1 0 0 0 0 0 0 1 3 6 8 8 7 5 4 4
7 7 7 6 6 6 5 4 4 3 3 3 3 4 5 4 3 3 3 2 2 3 3 3 4 4 3 1 0 0 0 0 0 0 1 2 3 5 6 6 5 4 4
8 8 8 8 9 8 7 6 4 3 3 2 1 2 3 3 2 2 2 3 3 3 3 3 3 4 3 2 1 0 0 0 0 0 0 1 1 1 2 3 3 2 2
7 7 7 7 7 6 5 4 4 3 2 1 0 0 1 1 1 1 2 3 3 3 3 3 3 3 3 3 2 1 0 0 0 0 0 0 0 0 0 1 1 1 0
6 6 6 5 4 2 3 3 4 3 2 1 0 0 0 0 0 1 2 2 3 3 3 3 3 3 3 3 2 1 0 0 0 0 0 0 0 0 0 1 2 2 1
7 8 8 7 4 2 2 4 5 5 3 2 1 1 1 0 0 0 1 1 1 2 3 3 3 3 3 2 1 0 1 1 1 1 0 0 0 0 0 1 2 3 2
10 10 12 11 8 5 5 6 8 8 6 3 3 4 3 1 0 1 1 1 0 1 3 3 3 2 1 1 0 0 1 2 2 2 1 1 0 0 0 1 2 3 2
11 11 12 12 10 8 8 9 11 12 9 5 4 5 4 2 1 2 3 3 2 2 3 3 3 2 0 0 0 1 2 3 3 3 3 2 1 0 0 1 2 2 1
10 9 10 10 9 8 8 10 12 13 10 6 4 5 5 3 3 4 5 5 5 5 4 4 3 2 1 1 1 2 3 3 2 3 3 3 2 1 0 0 1 1 0
9 8 7 8 7 6 6 9 11 12 10 6 4 5 4 4 5 7 7 7 7 7 6 5 4 3 2 2 2 3 3 3 3 3 3 3 3 2 1 0 0 0 0
Wind_Speed
3 3 8 8 8 8 9 9 9 10 10 11 10 10 10 10 10 9 9 9 8 8 8 9 8 9 9 9 9 9 9 10 11 11 11 11 10 10 10 10 9 7 9
5 5 8 8 9 9 9 9 10 10 10 10 10 9 9 9 9 9 8 8 8 8 8 8 8 8 8 8 9 9 9 10 10 10 10 10 10 10 10 9 9 6 9
6 5 6 8 9 10 10 10 10 10 10 10 9 9 8 8 8 8 8 8 8 7 8 8 8 8 8 8 8 8 9 9 9 9 9 5 7 9 9 8 9 9 9
7 4 5 8 9 9 10 10 10 10 10 9 8 8 8 8 8 8 8 8 7 7 8 8 8 8 7 7 7 7 8 8 9 8 4 4 4 8 8 8 9 8 8
5 4 5 9 9 9 9 10 10 10 9 9 8 8 7 7 7 7 7 7 6 6 7 7 7 6 6 6 6 7 8 8 8 6 4 3 3 7 8 8 9 8 8
5 3 5 9 9 9 9 9 10 9 9 8 8 7 7 6 6 6 6 6 5 5 5 6 6 5 5 5 6 6 7 8 7 4 4 3 3 7 8 8 9 8 8
5 3 3 7 7 8 9 9 9 9 8 8 7 6 6 5 4 5 5 4 4 4 4 5 5 5 4 5 5 5 6 7 5 4 3 3 3 7 7 7 8 8 8
5 3 2 6 7 8 9 10 9 8 7 7 6 5 5 4 3 4 4 4 3 3 4 4 4 4 4 4 5 5 5 6 5 4 3 3 4 6 6 7 7 7 8
4 3 1 2 4 7 9 9 8 7 6 5 5 4 4 3 2 2 3 2 2 3 3 3 4 4 4 4 4 5 5 5 4 3 4 3 5 6 6 6 7 7 7
3 2 2 2 2 2 3 6 7 6 5 4 4 4 3 2 2 1 1 2 2 2 3 3 3 4 4 4 4 4 4 4 3 3 2 3 6 6 6 6 6 6 7
3 2 2 2 2 2 2 4 4 4 4 3 2 2 3 2 2 2 1 1 1 2 2 3 3 3 3 3 3 3 3 1 2 2 2 4 6 6 6 6 6 7 7
5 3 2 2 2 2 2 2 1 1 1 1 1 2 2 2 2 2 2 2 1 1 1 2 3 3 3 2 2 2 1 1 1 1 2 5 6 6 6 6 6 7 7
5 4 3 2 2 2 1 2 1 1 1 1 1 1 1 1 1 2 1 2 2 2 1 2 2 2 2 1 1 1 1 1 1 1 2 5 5 5 6 6 6 6 6
5 5 4 3 2 2 1 1 1 1 1 0 0 1 1 1 1 1 1 1 1 1 1 1 1 2 2 1 1 2 1 1 1 1 2 4 5 5 5 6 6 6 6
5 5 4 4 4 2 2 1 2 1 1 1 0 0 1 1 0 0 0 1 1 1 1 1 1 1 1 2 1 1 1 1 1 1 1 3 4 4 4 4 5 6 6
6 5 4 5 4 3 2 1 1 1 1 1 0 0 1 1 1 1 1 1 0 0 1 1 2 2 1 1 1 1 1 1 1 1 1 1 2 3 4 4 4 5 5
5 5 5 5 4 4 3 2 2 1 1 1 0 0 1 1 1 1 1 0 0 1 1 2 2 2 2 1 2 2 1 1 0 1 1 0 1 2 3 3 3 4 4
4 4 5 5 5 4 3 2 2 1 1 1 0 1 1 1 1 1 1 0 0 1 1 2 2 2 1 1 1 1 1 1 1 0 0 1 1 1 2 2 3 3 3
4 4 4 3 5 4 3 2 2 2 1 1 1 1 1 1 1 1 1 0 1 2 1 1 2 2 1 1 1 1 1 1 1 1 0 1 1 1 1 1 2 3 3
4 4 4 3 3 4 3 3 2 2 1 1 0 0 1 1 1 1 1 1 1 2 1 1 2 2 1 1 1 1 1 1 1 1 0 0 1 1 1 1 1 1 3
3 3 4 4 3 3 2 2 2 1 0 0 0 0 1 1 1 1 1 1 1 1 1 2 2 2 1 1 2 1 2 1 1 0 0 0 1 1 1 1 1 1 2
4 4 4 4 4 3 2 2 2 2 1 1 1 1 1 1 1 1 1 1 1 1 1 1 2 1 1 1 2 1 1 3 2 1 0 1 1 1 1 2 2 2 2
4 4 4 4 4 3 2 3 3 2 1 1 0 0 1 1 1 1 1 1 1 1 1 1 2 2 1 0 1 2 2 2 2 2 1 1 1 1 1 2 2 2 3
3 3 3 3 3 2 3 4 4 3 2 2 1 1 0 0 1 1 1 1 1 1 1 1 2 1 2 1 0 0 1 2 1 1 2 1 1 1 2 2 2 2 2
2 3 3 3 3 2 3 3 3 2 1 1 0 0 0 0 0 1 1 1 1 1 1 1 2 2 2 2 1 1 1 1 1 1 1 2 2 2 2 2 2 2 2
3 2 2 3 2 2 3 3 3 3 2 2 0 0 0 1 1 1 1 1 1 1 1 1 1 2 2 2 1 1 2 2 2 2 2 2 2 2 2 1 1 2 2
Wind_Direction
179 171 162 154 150 145 139 133 126 121 118 116 115 116 118 122 124 125 123 122 119 118 120 121 119 118 119 117 119 123 130 132 132 132 132 131 129 131 131 129 125 123 124
153 156 159 157 152 147 141 137 134 128 123 120 119 120 119 120 122 124 123 121 120 120 121 122 122 121 122 123 122 121 126 131 133 133 132 131 132 134 133 132 130 126 128
140 148 157 155 152 149 144 140 137 132 127 123 123 122 121 119 118 120 121 121 119 118 119 121 125 124 123 125 127 127 126 129 132 131 125 117 127 133 138 138 133 131 131
140 143 155 157 152 149 146 143 140 136 132 130 128 125 122 120 118 119 120 120 120 119 120 120 121 120 121 122 126 128 127 129 128 126 111 115 130 140 141 141 138 140 140
134 142 163 159 155 150 148 145 143 139 136 135 131 126 122 122 121 122 122 123 121 122 124 125 122 120 120 124 128 133 134 136 131 121 111 113 130 148 147 147 147 148 146
137 147 166 163 160 156 152 150 147 144 142 140 134 129 125 124 123 127 127 126 126 127 127 129 125 123 121 124 130 135 138 141 133 126 127 133 145 154 155 156 153 151 148
139 147 169 163 158 157 155 148 145 146 146 142 138 136 133 131 129 135 136 132 134 138 137 134 128 126 127 128 130 132 137 143 136 136 142 149 162 163 163 162 154 151 152
136 139 155 159 150 150 151 149 149 148 148 143 141 141 142 141 140 149 145 142 142 140 139 139 137 131 130 131 132 135 140 143 142 148 155 163 173 172 172 161 154 155 157
122 127 129 135 141 145 147 153 155 150 147 144 145 144 145 145 144 149 142 139 146 143 139 141 145 138 131 130 134 140 144 148 144 161 176 175 184 184 173 162 158 158 160
108 118 122 105 105 120 141 156 156 152 147 146 148 140 125 116 113 97 108 133 150 147 142 138 137 133 129 129 132 138 141 141 153 164 170 183 189 184 175 164 160 157 160
144 139 129 122 110 108 127 153 150 151 145 141 126 119 93 54 46 42 48 114 122 121 126 128 128 123 112 109 116 121 122 127 150 160 170 185 188 184 177 170 166 166 166
177 174 156 153 140 126 143 115 89 102 94 81 61 58 56 51 42 51 45 71 88 86 98 108 110 113 98 79 91 102 101 124 141 161 175 182 186 187 182 176 176 174 173
181 177 172 166 150 145 137 122 100 74 69 61 60 72 68 55 41 35 35 38 41 47 43 62 72 78 87 96 98 100 115 123 134 166 176 178 181 185 185 183 183 180 177
170 181 172 162 154 157 140 130 128 118 113 115 101 109 103 75 45 37 33 23 39 46 63 58 64 66 74 88 100 108 128 140 156 159 179 176 172 174 181 184 181 183 181
177 186 180 170 172 168 145 154 140 153 161 170 142 134 140 134 130 61 46 40 36 61 100 106 97 82 74 60 71 99 125 151 164 155 160 183 182 180 186 187 188 189 189
184 186 180 175 175 162 163 168 157 153 150 116 117 133 138 140 146 125 90 63 40 82 119 124 121 108 85 62 55 57 76 97 116 140 152 182 188 188 198 201 202 196 195
182 179 182 177 167 166 172 173 158 150 142 136 146 100 119 144 158 146 116 100 67 92 95 98 99 98 95 73 51 41 42 66 110 133 149 202 216 208 209 206 199 199 199
168 172 184 176 163 164 165 160 146 140 134 143 124 100 123 133 136 125 114 108 95 93 90 104 100 94 83 66 47 19 13 14 23 89 156 207 220 237 232 203 198 204 205
166 169 168 161 155 155 146 130 120 116 114 115 96 109 118 109 99 108 105 50 96 98 89 116 101 108 110 77 46 27 9 8 5 13 1 246 237 236 230 223 219 220 219
160 159 147 140 138 136 123 103 82 72 61 79 105 97 88 90 94 105 95 66 98 100 87 90 100 94 111 110 77 35 2 351 357 7 325 328 285 245 213 214 233 248 244
134 139 139 143 144 141 134 133 125 130 77 23 358 59 98 96 94 103 96 76 93 124 138 125 115 104 92 94 84 26 355 353 346 331 311 314 285 253 215 211 220 243 258
152 149 145 145 149 165 166 148 138 132 131 109 9 17 41 99 109 131 120 135 134 123 112 122 113 115 100 99 113 100 2 345 331 346 347 237 262 247 232 229 227 235 248
150 159 159 151 153 152 143 111 91 77 62 67 6 294 280 185 142 133 139 138 113 119 146 156 138 139 152 100 113 141 148 228 309 334 341 307 281 256 259 251 237 239 246
155 141 136 137 142 149 145 142 148 159 178 212 220 224 311 350 157 159 146 140 131 136 148 175 143 149 145 155 147 101 150 156 158 325 334 332 311 274 270 266 262 250 244
114 118 124 120 120 126 131 140 146 155 181 186 117 74 343 316 235 195 175 160 156 175 187 166 148 158 160 166 168 153 138 109 133 162 275 315 328 304 286 267 266 258 252
92 96 103 108 107 118 127 126 138 152 150 128 135 235 292 307 312 303 229 189 190 196 205 197 175 167 175 171 171 167 164 170 186 179 214 253 281 298 306 289 277 267 257